Flag for U.S.A. Weather past 2 weeks in Atlantic City, New Jersey, U.S.A.

Now
45 °F

Clear.


Feels Like: 41 °F
Forecast: 49 / 65 °F
Wind: 7 mph from Northwest

Location: Atlantic City International Airport

Current Time: Oct 25, 2014 at 4:06:52 AM

Latest Report: Oct 25, 2014 at 2:54 AM


Visibility: 10 mi

Pressure: 29.89 "Hg

Humidity: 80%

Dew point: 39 °F

Location of Atlantic CityLocation

Historic Weather in Atlantic City — Graph

°F

Atlantic City temperature yesterday

Maximum temperature yesterday: 68 °F (at 2:54 PM)
Minimum temperature yesterday: 46 °F (at 4:54 AM)
Average temperature yesterday: 56 °F

Past Weeks' High & Low Weather Summary

 TemperatureHumidityPressure
High76 °F (Oct 14, 12:54 PM)100% (Oct 11, 3:54 AM)30.32 "Hg (Oct 11, 3:54 AM)
Low32 °F (Oct 20, 5:54 AM)38% (Oct 19, 4:54 PM)29.61 "Hg (Oct 18, 2:54 PM)
Average58 °F81%29.93 "Hg
* Reported Oct 10 2:54 AM — Oct 25 2:54 AM, Atlantic City, Weather by CustomWeather, © 2014

Note: Actual official high and low records may vary slightly from our data, if they occured in-between our weather recording intervals... More about our weather records

Advertising

Atlantic City weather history for previous 24 hours

 ConditionsComfort  
Time TempWeatherWind HumidityBarometerVisibility
2:54 AM
Oct 25
45 °FClear.7 mph80%29.89 "Hg10 mi
1:54 AM46 °FClear.5 mph77%29.88 "Hg10 mi
12:54 AM52 °FClear.6 mph64%29.88 "Hg10 mi
11:54 PM
Oct 24
53 °FClear.8 mph61%29.87 "Hg10 mi
10:54 PM55 °FClear.8 mph57%29.85 "Hg10 mi
9:54 PM56 °FClear.10 mph58%29.85 "Hg10 mi
8:54 PM56 °FClear.6 mph67%29.85 "Hg10 mi
7:54 PM58 °FClear.8 mph67%29.84 "Hg10 mi
6:54 PM61 °FSunny.7 mph60%29.83 "Hg10 mi
5:54 PM63 °FSunny.9 mph56%29.80 "Hg10 mi
4:54 PM65 °FSunny.13 mph51%29.79 "Hg10 mi
3:54 PM65 °FSunny.14 mph49%29.78 "Hg10 mi
2:54 PM68 °FSunny.17 mph45%29.78 "Hg10 mi
1:54 PM66 °FSunny.22 mph47%29.79 "Hg10 mi
12:54 PM64 °FPartly sunny.22 mph52%29.82 "Hg10 mi
11:54 AM62 °FPartly sunny.13 mph56%29.84 "Hg10 mi
10:54 AM57 °FOvercast.17 mph64%29.86 "Hg10 mi
9:54 AM57 °FOvercast.17 mph69%29.85 "Hg10 mi
8:54 AM54 °FSunny.9 mph77%29.84 "Hg10 mi
7:54 AM47 °FClear.3 mph93%29.83 "Hg10 mi
6:54 AM47 °FClear.7 mph90%29.83 "Hg10 mi
5:54 AM46 °FPassing clouds.3 mph93%29.83 "Hg10 mi
4:54 AM46 °FClear.6 mph89%29.82 "Hg10 mi
Weather by CustomWeather, © 2014

See weather overviewHow to use our weather pages